Time,TemperatureF,DewpointF,PressureIn,WindDirection,WindDirectionDegrees,WindSpeedMPH,WindSpeedGustMPH,Humidity,HourlyPrecipIn,Conditions,Clouds,dailyrainin,SoftwareType,DateUTC
2013-08-28 00:01:00,56.5,53.9,29.81,SSE,154,0.0,0.0,91,0.00,,---,0.00,VWS V12.07,2013-08-28 06:01:00,
2013-08-28 00:16:00,56.4,53.8,29.80,SSE,155,4.0,6.0,91,0.00,,---,0.00,VWS V12.07,2013-08-28 06:16:00,
2013-08-28 00:31:00,56.5,53.9,29.78,SE,146,0.0,1.0,91,0.00,,---,0.00,VWS V12.07,2013-08-28 06:31:00,
2013-08-28 00:46:00,56.0,53.4,29.80,SSE,159,0.0,7.0,91,0.00,,---,0.00,VWS V12.07,2013-08-28 06:46:00,
2013-08-28 01:01:00,55.6,53.3,29.80,SSE,157,0.0,3.0,92,0.00,,---,0.00,VWS V12.07,2013-08-28 07:01:00,
2013-08-28 01:16:00,55.4,53.1,29.78,SSE,157,0.0,3.0,92,0.00,,---,0.00,VWS V12.07,2013-08-28 07:16:00,
2013-08-28 01:31:00,55.6,53.3,29.78,SSE,157,0.0,0.0,92,0.00,,---,0.00,VWS V12.07,2013-08-28 07:31:00,
2013-08-28 01:46:00,55.8,53.5,29.78,SSE,157,0.0,0.0,92,0.00,,---,0.00,VWS V12.07,2013-08-28 07:46:00,
2013-08-28 02:01:00,56.1,53.8,29.78,SSE,157,0.0,0.0,92,0.00,,---,0.00,VWS V12.07,2013-08-28 08:01:00,
2013-08-28 02:16:00,56.2,53.9,29.75,SSE,157,0.0,0.0,92,0.00,,---,0.00,VWS V12.07,2013-08-28 08:16:00,
2013-08-28 02:31:00,56.1,53.8,29.75,SSE,158,0.0,0.0,92,0.00,,---,0.00,VWS V12.07,2013-08-28 08:31:00,
2013-08-28 02:46:00,55.9,53.6,29.75,SSE,158,0.0,0.0,92,0.00,,---,0.00,VWS V12.07,2013-08-28 08:46:00,
2013-08-28 03:01:00,55.9,53.3,29.75,SSE,158,0.0,0.0,91,0.00,,---,0.00,VWS V12.07,2013-08-28 09:01:00,
2013-08-28 03:16:00,55.8,53.2,29.81,SSE,157,0.0,5.0,91,0.00,,---,0.00,VWS V12.07,2013-08-28 09:16:00,
2013-08-28 03:31:00,55.6,53.0,29.81,SSE,157,0.0,0.0,91,0.00,,---,0.00,VWS V12.07,2013-08-28 09:31:00,
2013-08-28 03:46:00,55.4,52.8,29.81,SSE,159,0.0,6.0,91,0.00,,---,0.00,VWS V12.07,2013-08-28 09:46:00,
2013-08-28 04:01:00,55.1,52.5,29.80,SSE,159,0.0,0.0,91,0.00,,---,0.00,VWS V12.07,2013-08-28 10:01:00,
2013-08-28 04:16:00,55.1,52.2,29.84,SSE,159,0.0,0.0,90,0.00,,---,0.00,VWS V12.07,2013-08-28 10:16:00,
2013-08-28 04:31:00,54.7,51.8,29.84,SSE,159,0.0,0.0,90,0.00,,---,0.00,VWS V12.07,2013-08-28 10:31:00,
2013-08-28 04:46:00,53.7,50.8,29.86,SSE,159,0.0,0.0,90,0.00,,---,0.00,VWS V12.07,2013-08-28 10:46:00,
2013-08-28 05:01:00,53.3,50.5,29.86,SSE,159,0.0,0.0,90,0.00,,---,0.00,VWS V12.07,2013-08-28 11:01:00,
2013-08-28 05:16:00,52.6,49.8,29.83,SSE,159,0.0,0.0,90,0.00,,---,0.00,VWS V12.07,2013-08-28 11:16:00,
2013-08-28 05:31:00,52.4,49.8,29.83,SSE,159,0.0,0.0,91,0.00,,---,0.00,VWS V12.07,2013-08-28 11:31:00,
2013-08-28 05:46:00,52.7,50.2,29.83,SSE,155,0.0,6.0,91,0.00,,---,0.00,VWS V12.07,2013-08-28 11:46:00,
2013-08-28 06:01:00,52.8,50.2,29.83,SSE,155,0.0,0.0,91,0.00,,---,0.00,VWS V12.07,2013-08-28 12:01:00,
2013-08-28 06:16:00,52.7,49.8,29.83,SSE,157,0.0,5.0,90,0.00,,---,0.00,VWS V12.07,2013-08-28 12:16:00,
2013-08-28 06:31:00,51.9,49.1,29.85,SSE,157,0.0,0.0,90,0.00,,---,0.00,VWS V12.07,2013-08-28 12:31:00,
2013-08-28 06:46:00,51.9,49.4,29.85,SSE,165,4.0,6.0,91,0.00,,---,0.00,VWS V12.07,2013-08-28 12:46:00,
2013-08-28 07:00:00,52.1,49.6,29.86,SSE,165,0.0,6.0,91,0.00,,---,0.00,VWS V12.07,2013-08-28 13:00:00,
2013-08-28 07:16:00,53.2,50.7,29.88,SSE,167,0.0,5.0,91,0.00,,---,0.00,VWS V12.07,2013-08-28 13:16:00,
2013-08-28 07:31:00,54.7,52.1,29.86,SSE,167,0.0,0.0,91,0.00,,---,0.00,VWS V12.07,2013-08-28 13:31:00,
2013-08-28 07:46:00,56.7,53.5,29.84,SE,146,0.0,4.0,89,0.00,,---,0.00,VWS V12.07,2013-08-28 13:46:00,
2013-08-28 08:01:00,56.7,53.2,29.84,SSE,153,3.0,3.0,88,0.00,,---,0.00,VWS V12.07,2013-08-28 14:01:00,
2013-08-28 08:16:00,57.8,54.0,29.88,SE,144,0.0,7.0,87,0.00,,---,0.00,VWS V12.07,2013-08-28 14:16:00,
2013-08-28 08:31:00,59.3,54.8,29.88,SE,143,5.0,6.0,85,0.00,,---,0.00,VWS V12.07,2013-08-28 14:31:00,
2013-08-28 08:46:00,61.0,56.1,29.86,ESE,123,0.0,6.0,84,0.00,,---,0.00,VWS V12.07,2013-08-28 14:46:00,
2013-08-28 09:16:00,64.0,57.4,29.84,SE,142,3.0,6.0,79,0.00,,---,0.00,VWS V12.07,2013-08-28 15:16:00,
2013-08-28 09:31:00,65.6,57.5,29.84,SE,132,2.0,4.0,75,0.00,,---,0.00,VWS V12.07,2013-08-28 15:31:00,
2013-08-28 09:46:00,67.3,57.6,29.83,SE,124,0.0,5.0,71,0.00,,---,0.00,VWS V12.07,2013-08-28 15:46:00,
2013-08-28 10:01:00,68.4,57.0,29.83,ESE,118,0.0,2.0,67,0.00,,---,0.00,VWS V12.07,2013-08-28 16:01:00,
2013-08-28 10:16:00,69.7,54.8,29.83,ESE,118,0.0,4.0,59,0.00,,---,0.00,VWS V12.07,2013-08-28 16:16:00,
2013-08-28 10:31:00,71.4,53.9,29.82,ESE,117,2.0,4.0,54,0.00,,---,0.00,VWS V12.07,2013-08-28 16:31:00,
2013-08-28 10:46:00,72.3,54.7,29.82,North,10,2.0,6.0,54,0.00,,---,0.00,VWS V12.07,2013-08-28 16:46:00,
2013-08-28 11:01:00,71.9,52.8,29.82,NE,34,0.0,0.0,51,0.00,,---,0.00,VWS V12.07,2013-08-28 17:01:00,
2013-08-28 11:16:00,73.0,54.9,29.80,NE,34,1.0,5.0,53,0.00,,---,0.00,VWS V12.07,2013-08-28 17:16:00,
2013-08-28 11:31:00,74.1,53.7,29.80,NNE,26,1.0,3.0,49,0.00,,---,0.00,VWS V12.07,2013-08-28 17:31:00,
2013-08-28 11:46:00,75.0,53.4,29.78,NNW,336,5.0,7.0,47,0.00,,---,0.00,VWS V12.07,2013-08-28 17:46:00,
2013-08-28 12:01:00,75.6,53.4,29.79,North,360,4.0,4.0,46,0.00,,---,0.00,VWS V12.07,2013-08-28 18:01:00,
2013-08-28 12:16:00,76.9,52.7,29.78,NNE,24,0.0,9.0,43,0.00,,---,0.00,VWS V12.07,2013-08-28 18:16:00,
2013-08-28 12:31:00,77.3,51.8,29.77,NW,309,4.0,4.0,41,0.00,,---,0.00,VWS V12.07,2013-08-28 18:31:00,
2013-08-28 12:46:00,77.2,50.3,29.77,North,349,5.0,12.0,39,0.00,,---,0.00,VWS V12.07,2013-08-28 18:46:00,
2013-08-28 13:01:00,77.7,50.8,29.76,NE,40,3.0,4.0,39,0.00,,---,0.00,VWS V12.07,2013-08-28 19:01:00,
2013-08-28 13:16:00,78.1,50.5,29.76,NNE,17,5.0,14.0,38,0.00,,---,0.00,VWS V12.07,2013-08-28 19:16:00,
2013-08-28 13:31:00,78.0,50.4,29.75,North,360,8.0,12.0,38,0.00,,---,0.00,VWS V12.07,2013-08-28 19:31:00,
2013-08-28 13:46:00,79.0,52.0,29.75,NNW,336,2.0,12.0,39,0.00,,---,0.00,VWS V12.07,2013-08-28 19:46:00,
2013-08-28 14:01:00,78.7,51.0,29.75,NNE,15,0.0,9.0,38,0.00,,---,0.00,VWS V12.07,2013-08-28 20:01:00,
2013-08-28 14:16:00,77.8,50.2,29.74,North,10,5.0,16.0,38,0.00,,---,0.00,VWS V12.07,2013-08-28 20:16:00,
2013-08-28 14:31:00,77.5,49.9,29.75,North,360,4.0,4.0,38,0.00,,---,0.00,VWS V12.07,2013-08-28 20:31:00,
2013-08-28 14:46:00,79.1,50.6,29.73,NNW,327,6.0,14.0,37,0.00,,---,0.00,VWS V12.07,2013-08-28 20:46:00,
2013-08-28 15:01:00,80.4,51.0,29.71,NNW,328,3.0,4.0,36,0.00,,---,0.00,VWS V12.07,2013-08-28 21:01:00,
2013-08-28 15:16:00,80.0,50.7,29.71,North,9,1.0,12.0,36,0.00,,---,0.00,VWS V12.07,2013-08-28 21:16:00,
2013-08-28 15:31:00,79.9,50.6,29.72,NW,326,5.0,6.0,36,0.00,,---,0.00,VWS V12.07,2013-08-28 21:31:00,
2013-08-28 15:46:00,80.2,50.8,29.72,North,355,10.0,12.0,36,0.00,,---,0.00,VWS V12.07,2013-08-28 21:46:00,
2013-08-28 16:01:00,80.5,51.1,29.70,North,9,1.0,7.0,36,0.00,,---,0.00,VWS V12.07,2013-08-28 22:01:00,
2013-08-28 16:16:00,81.6,51.3,29.71,WNW,289,4.0,11.0,35,0.00,,---,0.00,VWS V12.07,2013-08-28 22:16:00,
2013-08-28 16:31:00,82.3,51.9,29.70,NNW,332,4.0,5.0,35,0.00,,---,0.00,VWS V12.07,2013-08-28 22:31:00,
2013-08-28 16:46:00,81.6,51.3,29.71,WNW,283,0.0,12.0,35,0.00,,---,0.00,VWS V12.07,2013-08-28 22:46:00,
2013-08-28 17:01:00,81.6,49.7,29.70,NNW,329,4.0,11.0,33,0.00,,---,0.00,VWS V12.07,2013-08-28 23:01:00,
2013-08-28 17:16:00,79.6,51.8,29.72,NNE,17,3.0,11.0,38,0.00,,---,0.00,VWS V12.07,2013-08-28 23:16:00,
2013-08-28 17:31:00,74.6,51.9,29.76,East,80,13.0,18.0,45,0.00,,---,0.00,VWS V12.07,2013-08-28 23:31:00,
2013-08-28 17:46:00,69.4,52.5,29.83,NE,47,4.0,19.0,55,0.00,,---,0.00,VWS V12.07,2013-08-28 23:46:00,
2013-08-28 18:01:00,67.2,54.6,29.83,NE,34,0.0,0.0,64,0.00,,---,0.00,VWS V12.07,2013-08-29 00:01:00,
2013-08-28 18:16:00,68.0,52.7,29.84,NE,34,0.0,0.0,58,0.00,,---,0.00,VWS V12.07,2013-08-29 00:16:00,
2013-08-28 18:31:00,66.8,54.7,29.85,ENE,77,3.0,6.0,65,0.00,,---,0.00,VWS V12.07,2013-08-29 00:31:00,
2013-08-28 18:46:00,67.3,54.3,29.86,SSE,160,6.0,9.0,63,0.00,,---,0.00,VWS V12.07,2013-08-29 00:46:00,
2013-08-28 19:01:00,65.1,51.3,29.92,South,184,22.0,22.0,61,0.01,,---,0.01,VWS V12.07,2013-08-29 01:01:00,
2013-08-28 19:16:00,64.6,50.4,29.87,SSW,202,18.0,36.0,60,0.01,,---,0.01,VWS V12.07,2013-08-29 01:16:00,
2013-08-28 19:31:00,63.4,50.2,29.89,SSW,211,14.0,16.0,62,0.01,,---,0.01,VWS V12.07,2013-08-29 01:31:00,
2013-08-28 19:46:00,63.2,50.0,29.89,SSW,206,10.0,24.0,62,0.01,,---,0.01,VWS V12.07,2013-08-29 01:46:00,
2013-08-28 20:01:00,63.7,49.6,29.88,SSW,200,12.0,14.0,60,0.01,,---,0.01,VWS V12.07,2013-08-29 02:01:00,
2013-08-28 20:16:00,63.5,50.3,29.84,SSE,168,11.0,16.0,62,0.00,,---,0.01,VWS V12.07,2013-08-29 02:16:00,
2013-08-28 20:31:00,62.1,50.2,29.85,South,169,1.0,4.0,65,0.00,,---,0.01,VWS V12.07,2013-08-29 02:31:00,
2013-08-28 20:46:00,61.6,50.5,29.85,ESE,121,5.0,8.0,67,0.00,,---,0.01,VWS V12.07,2013-08-29 02:46:00,
2013-08-28 21:01:00,60.6,50.8,29.84,SE,130,0.0,4.0,70,0.00,,---,0.01,VWS V12.07,2013-08-29 03:01:00,
2013-08-28 21:16:00,60.4,51.3,29.83,SE,141,7.0,14.0,72,0.00,,---,0.01,VWS V12.07,2013-08-29 03:16:00,
2013-08-28 21:31:00,59.5,51.9,29.82,SE,132,3.0,10.0,76,0.00,,---,0.01,VWS V12.07,2013-08-29 03:31:00,
2013-08-28 21:46:00,59.2,51.3,29.85,SSE,150,9.0,13.0,75,0.00,,---,0.01,VWS V12.07,2013-08-29 03:46:00,
2013-08-28 22:01:00,59.9,51.6,29.83,SE,134,6.0,11.0,74,0.00,,---,0.01,VWS V12.07,2013-08-29 04:01:00,
2013-08-28 22:16:00,60.0,51.3,29.81,SSE,158,4.0,12.0,73,0.00,,---,0.01,VWS V12.07,2013-08-29 04:16:00,
2013-08-28 22:31:00,59.7,51.4,29.81,SE,132,0.0,0.0,74,0.00,,---,0.01,VWS V12.07,2013-08-29 04:31:00,
2013-08-28 22:46:00,59.3,51.8,29.83,SSE,167,5.0,9.0,76,0.00,,---,0.01,VWS V12.07,2013-08-29 04:46:00,
2013-08-28 23:01:00,59.0,51.5,29.83,South,171,4.0,4.0,76,0.00,,---,0.01,VWS V12.07,2013-08-29 05:01:00,
2013-08-28 23:16:00,58.8,52.0,29.80,SE,145,2.0,7.0,78,0.00,,---,0.01,VWS V12.07,2013-08-29 05:16:00,
2013-08-28 23:31:00,58.3,52.5,29.79,SSE,148,3.0,7.0,81,0.00,,---,0.01,VWS V12.07,2013-08-29 05:31:00,
2013-08-28 23:46:00,58.0,51.5,29.80,SSE,161,0.0,7.0,79,0.00,,---,0.01,VWS V12.07,2013-08-29 05:46:00,